This demonstration page uses our WeatherBlox Daily Observations layout. Learn more.

Left ArrowRight Arrow

36.19886, -115.1175

Hourly Observations for August 2, 2017

Temp ( °F °C ) Dew Point ( °F °C ) Humidity (%) Winds ( mph kmh ) Pressure ( in mb ) Visibility ( mi km ) Precip ( " mm )
12:53 am 00:53 Clear 88 31.1 59 15 38 38 ESE 9 15 29.91 1013 10 16 N/A
1:53 am 01:53 Clear 88 31.1 57 13.9 35 35 ENE 9 15 29.91 1013 10 16 N/A
2:53 am 02:53 Clear 86 30 59 15 40 40 ENE 9 15 29.91 1013 10 16 N/A
3:53 am 03:53 Clear 85 29.4 59 15 42 42 N N/A 29.92 1013 10 16 N/A
4:53 am 04:53 Clear 84 28.9 60 15.6 44 44 NE 6 9 29.93 1014 10 16 N/A
5:53 am 05:53 Sunny 84 28.9 60 15.6 44 44 NNW 5 7 29.94 1014 10 16 N/A
6:53 am 06:53 Sunny 85 29.4 60 15.6 43 43 N N/A 29.96 1014 10 16 N/A
7:53 am 07:53 Sunny 88 31.1 58 14.4 36 36 VRB 3 6 29.98 1015 10 16 N/A
8:53 am 08:53 Sunny 90 32.2 58 14.4 34 34 SE 7 11 29.99 1016 10 16 N/A
9:53 am 09:53 Sunny 92 33.3 57 13.9 31 31 undefined N/A 30.00 1016 10 16 N/A
10:53 am 10:53 Sunny 95 35 55 12.8 26 26 VRB 6 9 29.98 1015 10 16 N/A
11:53 am 11:53 Sunny 97 36.1 54 12.2 24 24 SSE 8 13 29.96 1015 10 16 N/A
12:53 pm 12:53 Sunny 99 37.2 54 12.2 22 22 SW 5 7 29.93 1014 10 16 N/A
1:53 pm 13:53 Sunny 101 38.3 52 11.1 19 19 SSE 5 7 29.90 1012 10 16 N/A
2:53 pm 14:53 Sunny 102 38.9 50 10 17 17 SE 8 13 29.86 1011 10 16 N/A
3:00 pm 15:00 Sunny with Nearby Thunderstorms 103 39.4 51 10.6 18 18 S 8 13 29.71 1006 10 16 N/A
3:32 pm 15:32 Sunny with Thunderstorms 103 39.4 51 10.6 18 18 VRB 5 7 29.68 1005 10 16 N/A
3:53 pm 15:53 Sunny with Thunderstorms 104 40 50 10 16 16 S 8 13 29.83 1010 10 16 N/A
4:14 pm 16:14 Sunny 105 40.6 51 10.6 16 16 ESE 6 9 29.65 1004 10 16 N/A
4:53 pm 16:53 Sunny 105 40.6 49 9.4 15 15 S 7 11 29.82 1010 10 16 N/A
5:53 pm 17:53 Sunny 105 40.6 50 10 16 16 SSE 9 15 29.82 1010 10 16 N/A
6:53 pm 18:53 Sunny 97 36.1 58 14.4 27 27 SSE 29 46 29.84 1011 7 11 N/A
7:53 pm 19:53 Clear 94 34.4 57 13.9 29 29 SSW 15 24 29.91 1013 10 16 N/A
8:53 pm 20:53 Clear 93 33.9 57 13.9 30 30 NE 6 9 29.96 1015 10 16 N/A
9:53 pm 21:53 Partly Cloudy 93 33.9 58 14.4 31 31 SW 5 7 29.95 1014 10 16 N/A
10:53 pm 22:53 Clear 92 33.3 56 13.3 30 30 S 13 20 29.93 1014 10 16 N/A
11:53 pm 23:53 Clear 91 32.8 55 12.8 30 30 S 12 19 29.94 1014 10 16 N/A

Powered by AerisWeather